Location: Capelle
(50.3413°N, 1.9974°E)
Time: 00:32:49
(UTC+00:00)

NOSS 3-1 (C) - Pass Details

Date: 12 January 2026
Orbit: 618 x 1583 km, 63.4° (Epoch: 10 January)

Event Time Altitude Azimuth Distance (km) Brightness Sun altitude
Rises 19:55:40 0° 316° (NW) 3,642 7.2 -34.7°
Reaches altitude 10° 19:58:00 10° 317° (NW) 2,818 6.4 -35.0°
Enters shadow 20:03:04 56° 331° (NNW) 1,364 4.2 -35.8°
